Year,Month,Day,Hour,Minute,Value (Times are PST for temperature in C)
2010,08,23,00,00,13.90
2010,08,23,00,01,13.90
2010,08,23,00,02,13.90
2010,08,23,00,03,13.90
2010,08,23,00,04,13.90
2010,08,23,00,05,13.90
2010,08,23,00,06,13.90
2010,08,23,00,07,13.90
2010,08,23,00,08,13.80
2010,08,23,00,09,13.80
2010,08,23,00,10,13.80
2010,08,23,00,11,13.80
2010,08,23,00,12,13.80
2010,08,23,00,13,13.70
2010,08,23,00,14,13.70
2010,08,23,00,15,13.70
2010,08,23,00,16,13.70
2010,08,23,00,17,13.70
2010,08,23,00,18,13.60
2010,08,23,00,19,13.60
2010,08,23,00,20,13.60
2010,08,23,00,21,13.60
2010,08,23,00,22,13.50
2010,08,23,00,23,13.50
2010,08,23,00,24,13.50
2010,08,23,00,25,13.40
2010,08,23,00,26,13.40
2010,08,23,00,27,13.40
2010,08,23,00,28,13.40
2010,08,23,00,29,13.40
2010,08,23,00,30,13.40
2010,08,23,00,31,13.40
2010,08,23,00,32,13.30
2010,08,23,00,33,13.30
2010,08,23,00,34,13.30
2010,08,23,00,35,13.30
2010,08,23,00,36,13.30
2010,08,23,00,37,13.30
2010,08,23,00,38,13.20
2010,08,23,00,39,13.20
2010,08,23,00,40,13.20
2010,08,23,00,41,13.20
2010,08,23,00,42,13.20
2010,08,23,00,43,13.20
2010,08,23,00,44,13.10
2010,08,23,00,45,13.10
2010,08,23,00,46,13.10
2010,08,23,00,47,13.10
2010,08,23,00,48,13.10
2010,08,23,00,49,13.10
2010,08,23,00,50,13.10
2010,08,23,00,51,13.10
2010,08,23,00,52,13.10
2010,08,23,00,53,13.10
2010,08,23,00,54,13.10
2010,08,23,00,55,13.00
2010,08,23,00,56,13.00
2010,08,23,00,57,13.00
2010,08,23,00,58,13.00
2010,08,23,00,59,13.00
2010,08,23,01,00,12.90
2010,08,23,01,01,12.90
2010,08,23,01,02,12.90
2010,08,23,01,03,12.90
2010,08,23,01,04,12.90
2010,08,23,01,05,12.90
2010,08,23,01,06,12.90
2010,08,23,01,07,12.90
2010,08,23,01,08,12.90
2010,08,23,01,09,12.90
2010,08,23,01,10,12.80
2010,08,23,01,11,12.80
2010,08,23,01,12,12.80
2010,08,23,01,13,12.80
2010,08,23,01,14,12.80
2010,08,23,01,15,12.80
2010,08,23,01,16,12.80
2010,08,23,01,17,12.80
2010,08,23,01,18,12.80
2010,08,23,01,19,12.70
2010,08,23,01,20,12.70
2010,08,23,01,21,12.70
2010,08,23,01,22,12.70
2010,08,23,01,23,12.70
2010,08,23,01,24,12.70
2010,08,23,01,25,12.70
2010,08,23,01,26,12.70
2010,08,23,01,27,12.70
2010,08,23,01,28,12.70
2010,08,23,01,29,12.70
2010,08,23,01,30,12.70
2010,08,23,01,31,12.70
2010,08,23,01,32,12.70
2010,08,23,01,33,12.70
2010,08,23,01,34,12.70
2010,08,23,01,35,12.70
2010,08,23,01,36,12.60
2010,08,23,01,37,12.60
2010,08,23,01,38,12.60
2010,08,23,01,39,12.60
2010,08,23,01,40,12.60
2010,08,23,01,41,12.60
2010,08,23,01,42,12.60
2010,08,23,01,43,12.60
2010,08,23,01,44,12.50
2010,08,23,01,45,12.50
2010,08,23,01,46,12.50
2010,08,23,01,47,12.50
2010,08,23,01,48,12.50
2010,08,23,01,49,12.50
2010,08,23,01,50,12.40
2010,08,23,01,51,12.40
2010,08,23,01,52,12.40
2010,08,23,01,53,12.40
2010,08,23,01,54,12.40
2010,08,23,01,55,12.30
2010,08,23,01,56,12.30
2010,08,23,01,57,12.30
2010,08,23,01,58,12.30
2010,08,23,01,59,12.30
2010,08,23,02,00,12.30
2010,08,23,02,01,12.20
2010,08,23,02,02,12.20
2010,08,23,02,03,12.20
2010,08,23,02,04,12.20
2010,08,23,02,05,12.20
2010,08,23,02,06,12.20
2010,08,23,02,07,12.10
2010,08,23,02,08,12.10
2010,08,23,02,09,12.10
2010,08,23,02,10,12.10
2010,08,23,02,11,12.10
2010,08,23,02,12,12.10
2010,08,23,02,13,12.10
2010,08,23,02,14,12.10
2010,08,23,02,15,12.10
2010,08,23,02,16,12.10
2010,08,23,02,17,12.10
2010,08,23,02,18,12.10
2010,08,23,02,19,12.10
2010,08,23,02,20,12.10
2010,08,23,02,21,12.10
2010,08,23,02,22,12.10
2010,08,23,02,23,12.10
2010,08,23,02,24,12.10
2010,08,23,02,25,12.10
2010,08,23,02,26,12.10
2010,08,23,02,27,12.10
2010,08,23,02,28,12.10
2010,08,23,02,29,12.10
2010,08,23,02,30,12.10
2010,08,23,02,31,12.10
2010,08,23,02,32,12.10
2010,08,23,02,33,12.10
2010,08,23,02,34,12.00
2010,08,23,02,35,12.00
2010,08,23,02,36,12.00
2010,08,23,02,37,12.00
2010,08,23,02,38,12.00
2010,08,23,02,39,11.90
2010,08,23,02,40,11.90
2010,08,23,02,41,11.90
2010,08,23,02,42,11.90
2010,08,23,02,43,11.90
2010,08,23,02,44,11.90
2010,08,23,02,45,11.80
2010,08,23,02,46,11.80
2010,08,23,02,47,11.80
2010,08,23,02,48,11.80
2010,08,23,02,49,11.80
2010,08,23,02,50,11.80
2010,08,23,02,51,11.80
2010,08,23,02,52,11.80
2010,08,23,02,53,11.80
2010,08,23,02,54,11.80
2010,08,23,02,55,11.80
2010,08,23,02,56,11.80
2010,08,23,02,57,11.70
2010,08,23,02,58,11.70
2010,08,23,02,59,11.70
2010,08,23,03,00,11.70
2010,08,23,03,01,11.70
2010,08,23,03,02,11.70
2010,08,23,03,03,11.70
2010,08,23,03,04,11.70
2010,08,23,03,05,11.70
2010,08,23,03,06,11.70
2010,08,23,03,07,11.70
2010,08,23,03,08,11.70
2010,08,23,03,09,11.70
2010,08,23,03,10,11.70
2010,08,23,03,11,11.70
2010,08,23,03,12,11.80
2010,08,23,03,13,11.70
2010,08,23,03,14,11.70
2010,08,23,03,15,11.70
2010,08,23,03,16,11.70
2010,08,23,03,17,11.70
2010,08,23,03,18,11.70
2010,08,23,03,19,11.70
2010,08,23,03,20,11.70
2010,08,23,03,21,11.70
2010,08,23,03,22,11.70
2010,08,23,03,23,11.70
2010,08,23,03,24,11.70
2010,08,23,03,25,11.70
2010,08,23,03,26,11.60
2010,08,23,03,27,11.60
2010,08,23,03,28,11.60
2010,08,23,03,29,11.60
2010,08,23,03,30,11.60
2010,08,23,03,31,11.60
2010,08,23,03,32,11.60
2010,08,23,03,33,11.60
2010,08,23,03,34,11.60
2010,08,23,03,35,11.60
2010,08,23,03,36,11.60
2010,08,23,03,37,11.50
2010,08,23,03,38,11.50
2010,08,23,03,39,11.50
2010,08,23,03,40,11.50
2010,08,23,03,41,11.50
2010,08,23,03,42,11.50
2010,08,23,03,43,11.50
2010,08,23,03,44,11.50
2010,08,23,03,45,11.50
2010,08,23,03,46,11.50
2010,08,23,03,47,11.40
2010,08,23,03,48,11.40
2010,08,23,03,49,11.40
2010,08,23,03,50,11.40
2010,08,23,03,51,11.40
2010,08,23,03,52,11.40
2010,08,23,03,53,11.40
2010,08,23,03,54,11.40
2010,08,23,03,55,11.40
2010,08,23,03,56,11.30
2010,08,23,03,57,11.30
2010,08,23,03,58,11.30
2010,08,23,03,59,11.30
2010,08,23,04,00,11.30
2010,08,23,04,01,11.30
2010,08,23,04,02,11.30
2010,08,23,04,03,11.30
2010,08,23,04,04,11.20
2010,08,23,04,05,11.20
2010,08,23,04,06,11.20
2010,08,23,04,07,11.20
2010,08,23,04,08,11.20
2010,08,23,04,09,11.20
2010,08,23,04,10,11.20
2010,08,23,04,11,11.20
2010,08,23,04,12,11.20
2010,08,23,04,13,11.10
2010,08,23,04,14,11.10
2010,08,23,04,15,11.10
2010,08,23,04,16,11.10
2010,08,23,04,17,11.10
2010,08,23,04,18,11.10
2010,08,23,04,19,11.10
2010,08,23,04,20,11.10
2010,08,23,04,21,11.10
2010,08,23,04,22,11.10
2010,08,23,04,23,11.10
2010,08,23,04,24,11.10
2010,08,23,04,25,11.10
2010,08,23,04,26,11.00
2010,08,23,04,27,11.00
2010,08,23,04,28,11.00
2010,08,23,04,29,11.00
2010,08,23,04,30,11.00
2010,08,23,04,31,11.00
2010,08,23,04,32,11.00
2010,08,23,04,33,10.90
2010,08,23,04,34,10.90
2010,08,23,04,35,10.90
2010,08,23,04,36,10.90
2010,08,23,04,37,10.90
2010,08,23,04,38,10.90
2010,08,23,04,39,10.90
2010,08,23,04,40,10.80
2010,08,23,04,41,10.80
2010,08,23,04,42,10.80
2010,08,23,04,43,10.80
2010,08,23,04,44,10.80
2010,08,23,04,45,10.80
2010,08,23,04,46,10.80
2010,08,23,04,47,10.80
2010,08,23,04,48,10.80
2010,08,23,04,49,10.80
2010,08,23,04,50,10.80
2010,08,23,04,51,10.80
2010,08,23,04,52,10.70
2010,08,23,04,53,10.70
2010,08,23,04,54,10.70
2010,08,23,04,55,10.70
2010,08,23,04,56,10.70
2010,08,23,04,57,10.70
2010,08,23,04,58,10.70
2010,08,23,04,59,10.70
2010,08,23,05,00,10.70
2010,08,23,05,01,10.70
2010,08,23,05,02,10.70
2010,08,23,05,03,10.70
2010,08,23,05,04,10.70
2010,08,23,05,05,10.70
2010,08,23,05,06,10.70
2010,08,23,05,07,10.70
2010,08,23,05,08,10.70
2010,08,23,05,09,10.70
2010,08,23,05,10,10.70
2010,08,23,05,11,10.70
2010,08,23,05,12,10.70
2010,08,23,05,13,10.70
2010,08,23,05,14,10.60
2010,08,23,05,15,10.60
2010,08,23,05,16,10.60
2010,08,23,05,17,10.60
2010,08,23,05,18,10.60
2010,08,23,05,19,10.60
2010,08,23,05,20,10.60
2010,08,23,05,21,10.60
2010,08,23,05,22,10.60
2010,08,23,05,23,10.60
2010,08,23,05,24,10.60
2010,08,23,05,25,10.60
2010,08,23,05,26,10.50
2010,08,23,05,27,10.50
2010,08,23,05,28,10.50
2010,08,23,05,29,10.50
2010,08,23,05,30,10.50
2010,08,23,05,31,10.40
2010,08,23,05,32,10.40
2010,08,23,05,33,10.40
2010,08,23,05,34,10.40
2010,08,23,05,35,10.40
2010,08,23,05,36,10.40
2010,08,23,05,37,10.40
2010,08,23,05,38,10.40
2010,08,23,05,39,10.40
2010,08,23,05,40,10.40
2010,08,23,05,41,10.40
2010,08,23,05,42,10.40
2010,08,23,05,43,10.40
2010,08,23,05,44,10.30
2010,08,23,05,45,10.30
2010,08,23,05,46,10.30
2010,08,23,05,47,10.30
2010,08,23,05,48,10.30
2010,08,23,05,49,10.30
2010,08,23,05,50,10.30
2010,08,23,05,51,10.30
2010,08,23,05,52,10.30
2010,08,23,05,53,10.20
2010,08,23,05,54,10.20
2010,08,23,05,55,10.20
2010,08,23,05,56,10.20
2010,08,23,05,57,10.20
2010,08,23,05,58,10.20
2010,08,23,05,59,10.20
2010,08,23,06,00,10.20
2010,08,23,06,01,10.20
2010,08,23,06,02,10.20
2010,08,23,06,03,10.20
2010,08,23,06,04,10.10
2010,08,23,06,05,10.10
2010,08,23,06,06,10.10
2010,08,23,06,07,10.10
2010,08,23,06,08,10.10
2010,08,23,06,09,10.10
2010,08,23,06,10,10.10
2010,08,23,06,11,10.10
2010,08,23,06,12,10.10
2010,08,23,06,13,10.10
2010,08,23,06,14,10.00
2010,08,23,06,15,10.00
2010,08,23,06,16,10.00
2010,08,23,06,17,9.90
2010,08,23,06,18,9.90
2010,08,23,06,19,9.90
2010,08,23,06,20,9.90
2010,08,23,06,21,9.90
2010,08,23,06,22,9.80
2010,08,23,06,23,9.80
2010,08,23,06,24,9.80
2010,08,23,06,25,9.80
2010,08,23,06,26,9.80
2010,08,23,06,27,9.70
2010,08,23,06,28,9.70
2010,08,23,06,29,9.70
2010,08,23,06,30,9.70
2010,08,23,06,31,9.70
2010,08,23,06,32,9.70
2010,08,23,06,33,9.60
2010,08,23,06,34,9.60
2010,08,23,06,35,9.60
2010,08,23,06,36,9.60
2010,08,23,06,37,9.60
2010,08,23,06,38,9.60
2010,08,23,06,39,9.60
2010,08,23,06,40,9.60
2010,08,23,06,41,9.50
2010,08,23,06,42,9.50
2010,08,23,06,43,9.50
2010,08,23,06,44,9.50
2010,08,23,06,45,9.50
2010,08,23,06,46,9.40
2010,08,23,06,47,9.40
2010,08,23,06,48,9.40
2010,08,23,06,49,9.40
2010,08,23,06,50,9.40
2010,08,23,06,51,9.40
2010,08,23,06,52,9.40
2010,08,23,06,53,9.40
2010,08,23,06,54,9.40
2010,08,23,06,55,9.40
2010,08,23,06,56,9.40
2010,08,23,06,57,9.30
2010,08,23,06,58,9.30
2010,08,23,06,59,9.30
2010,08,23,07,00,9.30
2010,08,23,07,01,9.30
2010,08,23,07,02,9.30
2010,08,23,07,03,9.30
2010,08,23,07,04,9.30
2010,08,23,07,05,9.30
2010,08,23,07,06,9.30
2010,08,23,07,07,9.30
2010,08,23,07,08,9.30
2010,08,23,07,09,9.30
2010,08,23,07,10,9.30
2010,08,23,07,11,9.30
2010,08,23,07,12,9.30
2010,08,23,07,13,9.30
2010,08,23,07,14,9.30
2010,08,23,07,15,9.30
2010,08,23,07,16,9.30
2010,08,23,07,17,9.30
2010,08,23,07,18,9.30
2010,08,23,07,19,9.30
2010,08,23,07,20,9.30
2010,08,23,07,21,9.30
2010,08,23,07,22,9.30
2010,08,23,07,23,9.30
2010,08,23,07,24,9.40
2010,08,23,07,25,9.40
2010,08,23,07,26,9.40
2010,08,23,07,27,9.40
2010,08,23,07,28,9.40
2010,08,23,07,29,9.50
2010,08,23,07,30,9.50
2010,08,23,07,31,9.50
2010,08,23,07,32,9.60
2010,08,23,07,33,9.60
2010,08,23,07,34,9.60
2010,08,23,07,35,9.60
2010,08,23,07,36,9.70
2010,08,23,07,37,9.70
2010,08,23,07,38,9.70
2010,08,23,07,39,9.80
2010,08,23,07,40,9.80
2010,08,23,07,41,9.80
2010,08,23,07,42,9.80
2010,08,23,07,43,9.80
2010,08,23,07,44,9.90
2010,08,23,07,45,9.90
2010,08,23,07,46,9.90
2010,08,23,07,47,9.90
2010,08,23,07,48,10.00
2010,08,23,07,49,10.00
2010,08,23,07,50,10.10
2010,08,23,07,51,10.10
2010,08,23,07,52,10.10
2010,08,23,07,53,10.20
2010,08,23,07,54,10.30
2010,08,23,07,55,10.30
2010,08,23,07,56,10.40
2010,08,23,07,57,10.50
2010,08,23,07,58,10.50
2010,08,23,07,59,10.60
2010,08,23,08,00,10.70
2010,08,23,08,01,10.80
2010,08,23,08,02,10.80
2010,08,23,08,03,10.90
2010,08,23,08,04,11.00
2010,08,23,08,05,11.10
2010,08,23,08,06,11.20
2010,08,23,08,07,11.30
2010,08,23,08,08,11.40
2010,08,23,08,09,11.40
2010,08,23,08,10,11.50
2010,08,23,08,11,11.60
2010,08,23,08,12,11.60
2010,08,23,08,13,11.70
2010,08,23,08,14,11.70
2010,08,23,08,15,11.80
2010,08,23,08,16,11.80
2010,08,23,08,17,11.80
2010,08,23,08,18,11.90
2010,08,23,08,19,11.90
2010,08,23,08,20,12.00
2010,08,23,08,21,12.00
2010,08,23,08,22,12.10
2010,08,23,08,23,12.10
2010,08,23,08,24,12.20
2010,08,23,08,25,12.20
2010,08,23,08,26,12.30
2010,08,23,08,27,12.30
2010,08,23,08,28,12.30
2010,08,23,08,29,12.40
2010,08,23,08,30,12.50
2010,08,23,08,31,12.50
2010,08,23,08,32,12.60
2010,08,23,08,33,12.70
2010,08,23,08,34,12.70
2010,08,23,08,35,12.80
2010,08,23,08,36,12.90
2010,08,23,08,37,13.00
2010,08,23,08,38,13.00
2010,08,23,08,39,13.10
2010,08,23,08,40,13.10
2010,08,23,08,41,13.20
2010,08,23,08,42,13.20
2010,08,23,08,43,13.20
2010,08,23,08,44,13.30
2010,08,23,08,45,13.30
2010,08,23,08,46,13.30
2010,08,23,08,47,13.40
2010,08,23,08,48,13.40
2010,08,23,08,49,13.40
2010,08,23,08,50,13.50
2010,08,23,08,51,13.50
2010,08,23,08,52,13.50
2010,08,23,08,53,13.60
2010,08,23,08,54,13.60
2010,08,23,08,55,13.70
2010,08,23,08,56,13.70
2010,08,23,08,57,13.70
2010,08,23,08,58,13.70
2010,08,23,08,59,13.70
2010,08,23,09,00,13.80
2010,08,23,09,01,13.80
2010,08,23,09,02,13.80
2010,08,23,09,03,13.80
2010,08,23,09,04,13.80
2010,08,23,09,05,13.90
2010,08,23,09,06,13.90
2010,08,23,09,07,13.90
2010,08,23,09,08,14.00
2010,08,23,09,09,14.00
2010,08,23,09,10,14.10
2010,08,23,09,11,14.10
2010,08,23,09,12,14.20
2010,08,23,09,13,14.20
2010,08,23,09,14,14.20
2010,08,23,09,15,14.30
2010,08,23,09,16,14.30
2010,08,23,09,17,14.30
2010,08,23,09,18,14.40
2010,08,23,09,19,14.40
2010,08,23,09,20,14.40
2010,08,23,09,21,14.40
2010,08,23,09,22,14.40
2010,08,23,09,23,14.50
2010,08,23,09,24,14.50
2010,08,23,09,25,14.60
2010,08,23,09,26,14.60
2010,08,23,09,27,14.60
2010,08,23,09,28,14.60
2010,08,23,09,29,14.60
2010,08,23,09,30,14.60
2010,08,23,09,31,14.70
2010,08,23,09,32,14.70
2010,08,23,09,33,14.70
2010,08,23,09,34,14.70
2010,08,23,09,35,14.70
2010,08,23,09,36,14.70
2010,08,23,09,37,14.70
2010,08,23,09,38,14.70
2010,08,23,09,39,14.70
2010,08,23,09,40,14.70
2010,08,23,09,41,14.70
2010,08,23,09,42,14.70
2010,08,23,09,43,14.70
2010,08,23,09,44,14.70
2010,08,23,09,45,14.70
2010,08,23,09,46,14.80
2010,08,23,09,47,14.80
2010,08,23,09,48,14.80
2010,08,23,09,49,14.80
2010,08,23,09,50,14.80
2010,08,23,09,51,14.80
2010,08,23,09,52,14.80
2010,08,23,09,53,14.80
2010,08,23,09,54,14.80
2010,08,23,09,55,14.80
2010,08,23,09,56,14.70
2010,08,23,09,57,14.70
2010,08,23,09,58,14.60
2010,08,23,09,59,14.50
2010,08,23,10,00,14.50
2010,08,23,10,01,14.50
2010,08,23,10,02,14.50
2010,08,23,10,03,14.60
2010,08,23,10,04,14.60
2010,08,23,10,05,14.60
2010,08,23,10,06,14.70
2010,08,23,10,07,14.70
2010,08,23,10,08,14.70
2010,08,23,10,09,14.80
2010,08,23,10,10,14.80
2010,08,23,10,11,14.80
2010,08,23,10,12,14.90
2010,08,23,10,13,15.00
2010,08,23,10,14,15.00
2010,08,23,10,15,15.10
2010,08,23,10,16,15.10
2010,08,23,10,17,15.20
2010,08,23,10,18,15.20
2010,08,23,10,19,15.20
2010,08,23,10,20,15.30
2010,08,23,10,21,15.30
2010,08,23,10,22,15.30
2010,08,23,10,23,15.40
2010,08,23,10,24,15.40
2010,08,23,10,25,15.40
2010,08,23,10,26,15.40
2010,08,23,10,27,15.40
2010,08,23,10,28,15.40
2010,08,23,10,29,15.50
2010,08,23,10,30,15.50
2010,08,23,10,31,15.50
2010,08,23,10,32,15.60
2010,08,23,10,33,15.70
2010,08,23,10,34,15.70
2010,08,23,10,35,15.70
2010,08,23,10,36,15.80
2010,08,23,10,37,15.80
2010,08,23,10,38,15.80
2010,08,23,10,39,15.80
2010,08,23,10,40,15.90
2010,08,23,10,41,15.90
2010,08,23,10,42,15.90
2010,08,23,10,43,15.90
2010,08,23,10,44,16.00
2010,08,23,10,45,16.00
2010,08,23,10,46,16.00
2010,08,23,10,47,16.10
2010,08,23,10,48,16.10
2010,08,23,10,49,16.10
2010,08,23,10,50,16.20
2010,08,23,10,51,16.20
2010,08,23,10,52,16.30
2010,08,23,10,53,16.30
2010,08,23,10,54,16.40
2010,08,23,10,55,16.40
2010,08,23,10,56,16.40
2010,08,23,10,57,16.40
2010,08,23,10,58,16.40
2010,08,23,10,59,16.40
2010,08,23,11,00,16.50
2010,08,23,11,01,16.50
2010,08,23,11,02,16.50
2010,08,23,11,03,16.50
2010,08,23,11,04,16.60
2010,08,23,11,05,16.60
2010,08,23,11,06,16.60
2010,08,23,11,07,16.60
2010,08,23,11,08,16.60
2010,08,23,11,09,16.60
2010,08,23,11,10,16.60
2010,08,23,11,11,16.60
2010,08,23,11,12,16.60
2010,08,23,11,13,16.60
2010,08,23,11,14,16.70
2010,08,23,11,15,16.70
2010,08,23,11,16,16.70
2010,08,23,11,17,16.80
2010,08,23,11,18,16.80
2010,08,23,11,19,16.80
2010,08,23,11,20,16.80
2010,08,23,11,21,16.90
2010,08,23,11,22,16.90
2010,08,23,11,23,17.00
2010,08,23,11,24,17.00
2010,08,23,11,25,17.10
2010,08,23,11,26,17.20
2010,08,23,11,27,17.20
2010,08,23,11,28,17.20
2010,08,23,11,29,17.30
2010,08,23,11,30,17.30
2010,08,23,11,31,17.20
2010,08,23,11,32,17.20
2010,08,23,11,33,17.20
2010,08,23,11,34,17.20
2010,08,23,11,35,17.20
2010,08,23,11,36,17.20
2010,08,23,11,37,17.20
2010,08,23,11,38,17.20
2010,08,23,11,39,17.20
2010,08,23,11,40,17.20
2010,08,23,11,41,17.20
2010,08,23,11,42,17.30
2010,08,23,11,43,17.30
2010,08,23,11,44,17.30
2010,08,23,11,45,17.30
2010,08,23,11,46,17.30
2010,08,23,11,47,17.30
2010,08,23,11,48,17.30
2010,08,23,11,49,17.30
2010,08,23,11,50,17.30
2010,08,23,11,51,17.20
2010,08,23,11,52,17.20
2010,08,23,11,53,17.20
2010,08,23,11,54,17.10
2010,08,23,11,55,17.10
2010,08,23,11,56,17.10
2010,08,23,11,57,17.10
2010,08,23,11,58,17.10
2010,08,23,11,59,17.10
2010,08,23,12,00,17.10
2010,08,23,12,01,17.10
2010,08,23,12,02,17.10
2010,08,23,12,03,17.10
2010,08,23,12,04,17.10
2010,08,23,12,05,17.10
2010,08,23,12,06,17.10
2010,08,23,12,07,17.10
2010,08,23,12,08,17.10
2010,08,23,12,09,17.10
2010,08,23,12,10,17.10
2010,08,23,12,11,17.20
2010,08,23,12,12,17.20
2010,08,23,12,13,17.20
2010,08,23,12,14,17.30
2010,08,23,12,15,17.30
2010,08,23,12,16,17.40
2010,08,23,12,17,17.40
2010,08,23,12,18,17.50
2010,08,23,12,19,17.50
2010,08,23,12,20,17.60
2010,08,23,12,21,17.70
2010,08,23,12,22,17.70
2010,08,23,12,23,17.70
2010,08,23,12,24,17.70
2010,08,23,12,25,17.70
2010,08,23,12,26,17.70
2010,08,23,12,27,17.70
2010,08,23,12,28,17.60
2010,08,23,12,29,17.60
2010,08,23,12,30,17.60
2010,08,23,12,31,17.60
2010,08,23,12,32,17.50
2010,08,23,12,33,17.50
2010,08,23,12,34,17.50
2010,08,23,12,35,17.40
2010,08,23,12,36,17.40
2010,08,23,12,37,17.30
2010,08,23,12,38,17.30
2010,08,23,12,39,17.20
2010,08,23,12,40,17.20
2010,08,23,12,41,17.20
2010,08,23,12,42,17.20
2010,08,23,12,43,17.20
2010,08,23,12,44,17.30
2010,08,23,12,45,17.30
2010,08,23,12,46,17.30
2010,08,23,12,47,17.30
2010,08,23,12,48,17.30
2010,08,23,12,49,17.30
2010,08,23,12,50,17.40
2010,08,23,12,51,17.40
2010,08,23,12,52,17.40
2010,08,23,12,53,17.50
2010,08,23,12,54,17.50
2010,08,23,12,55,17.50
2010,08,23,12,56,17.60
2010,08,23,12,57,17.60
2010,08,23,12,58,17.60
2010,08,23,12,59,17.60
2010,08,23,13,00,17.60
2010,08,23,13,01,17.60
2010,08,23,13,02,17.60
2010,08,23,13,03,17.60
2010,08,23,13,04,17.60
2010,08,23,13,05,17.60
2010,08,23,13,06,17.60
2010,08,23,13,07,17.70
2010,08,23,13,08,17.70
2010,08,23,13,09,17.70
2010,08,23,13,10,17.70
2010,08,23,13,11,17.70
2010,08,23,13,12,17.80
2010,08,23,13,13,17.80
2010,08,23,13,14,17.80
2010,08,23,13,15,17.90
2010,08,23,13,16,17.90
2010,08,23,13,17,18.00
2010,08,23,13,18,18.00
2010,08,23,13,19,18.00
2010,08,23,13,20,18.00
2010,08,23,13,21,18.10
2010,08,23,13,22,18.20
2010,08,23,13,23,18.30
2010,08,23,13,24,18.30
2010,08,23,13,25,18.40
2010,08,23,13,26,18.50
2010,08,23,13,27,18.60
2010,08,23,13,28,18.60
2010,08,23,13,29,18.60
2010,08,23,13,30,18.60
2010,08,23,13,31,18.60
2010,08,23,13,32,18.60
2010,08,23,13,33,18.70
2010,08,23,13,34,18.70
2010,08,23,13,35,18.70
2010,08,23,13,36,18.70
2010,08,23,13,37,18.70
2010,08,23,13,38,18.70
2010,08,23,13,39,18.80
2010,08,23,13,40,18.80
2010,08,23,13,41,18.90
2010,08,23,13,42,18.90
2010,08,23,13,43,18.90
2010,08,23,13,44,18.90
2010,08,23,13,45,18.90
2010,08,23,13,46,19.00
2010,08,23,13,47,19.00
2010,08,23,13,48,19.00
2010,08,23,13,49,19.00
2010,08,23,13,50,19.00
2010,08,23,13,51,19.00
2010,08,23,13,52,19.10
2010,08,23,13,53,19.20
2010,08,23,13,54,19.20
2010,08,23,13,55,19.20
2010,08,23,13,56,19.20
2010,08,23,13,57,19.20
2010,08,23,13,58,19.10
2010,08,23,13,59,19.20
2010,08,23,14,00,19.20
2010,08,23,14,01,19.20
2010,08,23,14,02,19.20
2010,08,23,14,03,19.20
2010,08,23,14,04,19.20
2010,08,23,14,05,19.20
2010,08,23,14,06,19.20
2010,08,23,14,07,19.20
2010,08,23,14,08,19.20
2010,08,23,14,09,19.10
2010,08,23,14,10,19.20
2010,08,23,14,11,19.20
2010,08,23,14,12,19.20
2010,08,23,14,13,19.20
2010,08,23,14,14,19.20
2010,08,23,14,15,19.20
2010,08,23,14,16,19.20
2010,08,23,14,17,19.10
2010,08,23,14,18,19.10
2010,08,23,14,19,19.20
2010,08,23,14,20,19.20
2010,08,23,14,21,19.20
2010,08,23,14,22,19.20
2010,08,23,14,23,19.10
2010,08,23,14,24,19.10
2010,08,23,14,25,19.10
2010,08,23,14,26,19.10
2010,08,23,14,27,19.10
2010,08,23,14,28,19.10
2010,08,23,14,29,19.10
2010,08,23,14,30,19.10
2010,08,23,14,31,19.20
2010,08,23,14,32,19.30
2010,08,23,14,33,19.30
2010,08,23,14,34,19.30
2010,08,23,14,35,19.40
2010,08,23,14,36,19.40
2010,08,23,14,37,19.40
2010,08,23,14,38,19.50
2010,08,23,14,39,19.50
2010,08,23,14,40,19.50
2010,08,23,14,41,19.50
2010,08,23,14,42,19.50
2010,08,23,14,43,19.40
2010,08,23,14,44,19.40
2010,08,23,14,45,19.30
2010,08,23,14,46,19.30
2010,08,23,14,47,19.30
2010,08,23,14,48,19.40
2010,08,23,14,49,19.40
2010,08,23,14,50,19.50
2010,08,23,14,51,19.60
2010,08,23,14,52,19.70
2010,08,23,14,53,19.70
2010,08,23,14,54,19.80
2010,08,23,14,55,19.80
2010,08,23,14,56,19.90
2010,08,23,14,57,19.90
2010,08,23,14,58,20.00
2010,08,23,14,59,20.10
2010,08,23,15,00,20.10
2010,08,23,15,01,20.20
2010,08,23,15,02,20.20
2010,08,23,15,03,20.30
2010,08,23,15,04,20.30
2010,08,23,15,05,20.30
2010,08,23,15,06,20.30
2010,08,23,15,07,20.20
2010,08,23,15,08,20.20
2010,08,23,15,09,20.20
2010,08,23,15,10,20.20
2010,08,23,15,11,20.10
2010,08,23,15,12,20.10
2010,08,23,15,13,19.90
2010,08,23,15,14,19.90
2010,08,23,15,15,19.80
2010,08,23,15,16,19.60
2010,08,23,15,17,19.60
2010,08,23,15,18,19.50
2010,08,23,15,19,19.50
2010,08,23,15,20,19.40
2010,08,23,15,21,19.40
2010,08,23,15,22,19.30
2010,08,23,15,23,19.30
2010,08,23,15,24,19.30
2010,08,23,15,25,19.40
2010,08,23,15,26,19.40
2010,08,23,15,27,19.40
2010,08,23,15,28,19.40
2010,08,23,15,29,19.40
2010,08,23,15,30,19.40
2010,08,23,15,31,19.40
2010,08,23,15,32,19.50
2010,08,23,15,33,19.60
2010,08,23,15,34,19.60
2010,08,23,15,35,19.60
2010,08,23,15,36,19.60
2010,08,23,15,37,19.70
2010,08,23,15,38,19.70
2010,08,23,15,39,19.80
2010,08,23,15,40,19.80
2010,08,23,15,41,19.80
2010,08,23,15,42,19.90
2010,08,23,15,43,19.90
2010,08,23,15,44,19.90
2010,08,23,15,45,19.90
2010,08,23,15,46,19.90
2010,08,23,15,47,19.90
2010,08,23,15,48,19.80
2010,08,23,15,49,19.90
2010,08,23,15,50,19.80
2010,08,23,15,51,19.80
2010,08,23,15,52,19.70
2010,08,23,15,53,19.70
2010,08,23,15,54,19.60
2010,08,23,15,55,19.60
2010,08,23,15,56,19.60
2010,08,23,15,57,19.70
2010,08,23,15,58,19.70
2010,08,23,15,59,19.70
2010,08,23,16,00,19.70
2010,08,23,16,01,19.70
2010,08,23,16,02,19.70
2010,08,23,16,03,19.60
2010,08,23,16,04,19.60
2010,08,23,16,05,19.40
2010,08,23,16,06,19.30
2010,08,23,16,07,19.20
2010,08,23,16,08,19.10
2010,08,23,16,09,19.10
2010,08,23,16,10,19.10
2010,08,23,16,11,19.10
2010,08,23,16,12,19.20
2010,08,23,16,13,19.30
2010,08,23,16,14,19.30
2010,08,23,16,15,19.40
2010,08,23,16,16,19.50
2010,08,23,16,17,19.70
2010,08,23,16,18,19.80
2010,08,23,16,19,19.80
2010,08,23,16,20,19.90
2010,08,23,16,21,19.90
2010,08,23,16,22,19.90
2010,08,23,16,23,19.90
2010,08,23,16,24,20.00
2010,08,23,16,25,20.00
2010,08,23,16,26,20.10
2010,08,23,16,27,20.10
2010,08,23,16,28,20.20
2010,08,23,16,29,20.20
2010,08,23,16,30,20.20
2010,08,23,16,31,20.20
2010,08,23,16,32,20.20
2010,08,23,16,33,20.20
2010,08,23,16,34,20.30
2010,08,23,16,35,20.30
2010,08,23,16,36,20.40
2010,08,23,16,37,20.50
2010,08,23,16,38,20.60
2010,08,23,16,39,20.60
2010,08,23,16,40,20.70
2010,08,23,16,41,20.70
2010,08,23,16,42,20.80
2010,08,23,16,43,20.80
2010,08,23,16,44,20.80
2010,08,23,16,45,20.90
2010,08,23,16,46,20.90
2010,08,23,16,47,20.90
2010,08,23,16,48,20.90
2010,08,23,16,49,20.90
2010,08,23,16,50,20.80
2010,08,23,16,51,20.80
2010,08,23,16,52,20.80
2010,08,23,16,53,20.80
2010,08,23,16,54,20.90
2010,08,23,16,55,20.90
2010,08,23,16,56,20.90
2010,08,23,16,57,20.90
2010,08,23,16,58,20.80
2010,08,23,16,59,20.80
2010,08,23,17,00,20.80
2010,08,23,17,01,20.70
2010,08,23,17,02,20.70
2010,08,23,17,03,20.70
2010,08,23,17,04,20.70
2010,08,23,17,05,20.70
2010,08,23,17,06,20.70
2010,08,23,17,07,20.60
2010,08,23,17,08,20.50
2010,08,23,17,09,20.30
2010,08,23,17,10,20.20
2010,08,23,17,11,20.00
2010,08,23,17,12,19.90
2010,08,23,17,13,19.80
2010,08,23,17,14,19.70
2010,08,23,17,15,19.70
2010,08,23,17,16,19.70
2010,08,23,17,17,19.70
2010,08,23,17,18,19.70
2010,08,23,17,19,19.70
2010,08,23,17,20,19.70
2010,08,23,17,21,19.70
2010,08,23,17,22,19.70
2010,08,23,17,23,19.60